GW1821 Weather Reports


Display with metric or nautical units.
time (UTC)temp
F
wind
direction
speed
MPH
gust
MPH
rain 1hr
in
rain 24hr
in
rain mn
in
humidity
%
barometer
mb
20260503204858 71 324 5.0 13.0 0.00 0.00 0.00 28 1002.9
20260503204355 70 346 5.0 13.0 0.00 0.00 0.00 29 1002.9
20260503204343 71 330 5.0 13.0 0.00 0.00 0.00 28 1003.0
20260503203351 70 331 6.0 15.0 0.00 0.00 0.00 30 1003.0
20260503202849 70 309 5.0 15.0 0.00 0.00 0.00 28 1003.0
20260503202611 70 296 5.0 14.0 0.00 0.00 0.00 29 1003.1
20260503201848 70 317 5.0 15.0 0.00 0.00 0.00 28 1003.1
20260503201341 70 308 4.0 15.0 0.00 0.00 0.00 28 1003.1
20260503200837 70 293 4.0 11.0 0.00 0.00 0.00 29 1003.2
20260503200337 69 315 5.0 12.0 0.00 0.00 0.00 28 1003.2
20260503195834 69 321 6.0 13.0 0.00 0.00 0.00 30 1003.3
20260503195333 69 288 6.0 14.0 0.00 0.00 0.00 27 1003.3
20260503194828 70 289 5.0 14.0 0.00 0.00 0.00 28 1003.4
20260503194548 70 277 5.0 16.0 0.00 0.00 0.00 28 1003.2
20260503193826 70 310 5.0 16.0 0.00 0.00 0.00 29 1003.3
20260503193321 70 291 4.0 12.0 0.00 0.00 0.00 30 1003.3
20260503192821 70 285 5.0 18.0 0.00 0.00 0.00 29 1003.4
20260503192536 70 14 5.0 18.0 0.00 0.00 0.00 34 1003.4
20260503191817 69 335 6.0 19.0 0.00 0.00 0.00 34 1003.5
20260503191319 69 325 7.0 19.0 0.00 0.00 0.00 32 1003.6
20260503190817 69 306 6.0 12.0 0.00 0.00 0.00 34 1003.6
20260503190315 70 286 5.0 14.0 0.00 0.00 0.00 34 1003.6
20260503185813 70 309 5.0 14.0 0.00 0.00 0.00 36 1003.6
20260503185314 70 306 6.0 15.0 0.00 0.00 0.00 38 1003.8
20260503185032 69 337 6.0 15.0 0.00 0.00 0.00 37 1003.8
20260503184306 69 294 5.0 13.0 0.00 0.00 0.00 35 1003.6
20260503183807 70 294 5.0 16.0 0.00 0.00 0.00 34 1003.6
20260503183306 70 15 5.0 16.0 0.00 0.00 0.00 34 1003.8
20260503182806 69 5 4.0 15.0 0.00 0.00 0.00 34 1003.8
20260503182256 69 286 4.0 12.0 0.00 0.00 0.00 33 1003.8
20260503181754 69 255 5.0 17.0 0.00 0.00 0.00 33 1003.9
20260503181256 69 325 6.0 17.0 0.00 0.00 0.00 31 1004.1
20260503181017 69 289 7.0 17.0 0.00 0.00 0.00 40 1004.1
20260503180507 69 332 7.0 17.0 0.00 0.00 0.00 40 1004.1
20260503175751 69 323 6.0 16.0 0.00 0.00 0.00 39 1004.1
20260503175248 69 301 6.0 16.0 0.00 0.00 0.00 41 1003.9
20260503174748 69 331 7.0 15.0 0.00 0.00 0.00 39 1004.2
20260503174247 69 339 5.0 16.0 0.00 0.00 0.00 41 1004.2
20260503174008 69 0 4.0 13.0 0.00 0.00 0.00 41 1004.2
20260503173240 69 17 5.0 12.0 0.00 0.00 0.00 35 1004.2
20260503172740 69 22 6.0 13.0 0.00 0.00 0.00 44 1004.1
20260503172235 69 312 6.0 13.0 0.00 0.00 0.00 41 1004.1
20260503171733 68 310 6.0 13.0 0.00 0.00 0.00 40 1004.2
20260503171230 68 312 5.0 12.0 0.00 0.00 0.00 43 1004.3
20260503170730 68 355 5.0 12.0 0.00 0.00 0.00 43 1004.3
20260503170226 68 5 5.0 14.0 0.00 0.00 0.00 43 1004.3
20260503160159 66 5 6.0 14.0 0.00 0.00 0.00 50 1004.1
20260503150640 63 319 5.0 13.0 0.00 0.00 0.00 54 1004.0
20260503150418 62 21 5.0 12.0 0.00 0.00 0.00 53 1004.0
20260503140103 57 305 6.0 15.0 0.00 0.00 0.00 62 1003.6
20260503131053 53 340 4.0 12.0 0.00 0.00 0.00 70 1003.2
20260503130553 52 355 4.0 11.0 0.00 0.00 0.00 72 1003.1
20260503110339 46 211 0.0 0.0 0.00 0.00 0.00 82 1001.9
20260503090215 48 204 2.0 8.0 0.00 0.00 0.00 88 1002.2
20260503081119 51 196 2.0 8.0 0.00 0.00 0.00 82 1002.4
20260503080618 52 200 2.0 8.0 0.00 0.00 0.00 79 1002.4
20260503080111 54 190 1.0 7.0 0.00 0.00 0.00 77 1002.5
20260503072534 56 184 2.0 6.0 0.00 0.00 0.00 62 1002.7
20260503072039 56 169 1.0 6.0 0.00 0.00 0.00 62 1002.7
20260503071534 56 165 1.0 6.0 0.00 0.00 0.00 61 1002.8
20260503071037 57 161 2.0 5.0 0.00 0.00 0.00 59 1002.8
20260503070517 57 159 2.0 7.0 0.00 0.00 0.00 58 1002.9
20260503054916 59 180 4.0 8.0 0.00 0.00 0.00 49 1004.1
20260503054636 59 167 4.0 14.0 0.00 0.00 0.00 49 1004.3
20260503053915 59 246 5.0 14.0 0.00 0.00 0.00 49 1004.4
20260503053410 59 180 5.0 10.0 0.00 0.00 0.00 48 1004.5
20260503052910 59 178 4.0 10.0 0.00 0.00 0.00 48 1004.6
20260503052408 59 185 4.0 10.0 0.00 0.00 0.00 48 1004.7
20260503051906 59 134 4.0 10.0 0.00 0.00 0.00 48 1004.7
20260503051408 59 153 4.0 9.0 0.00 0.00 0.00 48 1004.6
20260503050906 59 190 4.0 11.0 0.00 0.00 0.00 48 1004.6
20260503050357 59 169 4.0 11.0 0.00 0.00 0.00 48 1004.6
20260503045857 59 141 5.0 12.0 0.00 0.00 0.00 49 1004.5
20260503045356 59 132 4.0 12.0 0.00 0.00 0.00 49 1004.7
20260503044853 59 179 4.0 8.0 0.00 0.00 0.00 48 1004.7
20260503044352 59 126 4.0 8.0 0.00 0.00 0.00 49 1004.8
20260503043849 59 169 4.0 10.0 0.00 0.00 0.00 48 1004.9
20260503043341 59 145 4.0 10.0 0.00 0.00 0.00 48 1004.9
20260503042842 60 171 3.0 9.0 0.00 0.00 0.00 48 1004.9
20260503042340 60 139 3.0 9.0 0.00 0.00 0.00 48 1005.0
20260503041839 60 146 3.0 9.0 0.00 0.00 0.00 48 1005.1
20260503041337 60 148 3.0 7.0 0.00 0.00 0.00 48 1005.2
20260503040835 60 126 3.0 7.0 0.00 0.00 0.00 48 1005.2
20260503040549 60 171 3.0 10.0 0.00 0.00 0.00 49 1005.4
20260503035835 60 167 3.0 10.0 0.00 0.00 0.00 48 1005.4
20260503035601 60 153 3.0 8.0 0.00 0.00 0.00 49 1005.4
20260503035051 60 150 3.0 7.0 0.00 0.00 0.00 49 1005.5
20260503034557 60 157 3.0 7.0 0.00 0.00 0.00 48 1005.6
20260503033830 60 151 3.0 7.0 0.00 0.00 0.00 48 1005.7
20260503033327 60 153 3.0 7.0 0.00 0.00 0.00 49 1005.9
20260503032821 60 148 3.0 7.0 0.00 0.00 0.00 49 1005.9
20260503032323 60 161 2.0 6.0 0.00 0.00 0.00 48 1005.9
20260503031823 60 153 2.0 5.0 0.00 0.00 0.00 48 1006.1
20260503031808 61 166 2.0 5.0 0.00 0.00 0.00 48 1006.2
20260503030814 61 167 2.0 5.0 0.00 0.00 0.00 48 1006.3
20260503030305 61 167 2.0 6.0 0.00 0.00 0.00 47 1006.4
20260503025805 61 163 2.0 6.0 0.00 0.00 0.00 47 1006.4
20260503025305 61 160 2.0 6.0 0.00 0.00 0.00 47 1006.5
20260503024803 62 142 2.0 7.0 0.00 0.00 0.00 47 1006.6
20260503024256 62 159 2.0 7.0 0.00 0.00 0.00 46 1006.6
20260503023753 62 192 1.0 4.0 0.00 0.00 0.00 46 1006.8
20260503023520 62 192 2.0 7.0 0.00 0.00 0.00 45 1007.1
20260503022743 62 182 2.0 7.0 0.00 0.00 0.00 45 1007.1
20260503022239 62 242 3.0 10.0 0.00 0.00 0.00 45 1007.1
20260503021738 62 230 2.0 10.0 0.00 0.00 0.00 44 1007.1
20260503021719 63 210 1.0 7.0 0.00 0.00 0.00 44 1007.1
20260503020952 63 250 2.0 9.0 0.00 0.00 0.00 44 1007.2
20260503020444 63 194 4.0 10.0 0.00 0.00 0.00 43 1007.3
20260503015714 63 234 5.0 11.0 0.00 0.00 0.00 43 1007.2
20260503015214 63 284 6.0 12.0 0.00 0.00 0.00 43 1007.3
20260503014714 63 249 7.0 17.0 0.00 0.00 0.00 42 1007.6
20260503014155 64 245 6.0 17.0 0.00 0.00 0.00 41 1007.7
20260503013652 64 237 6.0 12.0 0.00 0.00 0.00 41 1007.7
20260503013411 64 281 6.0 13.0 0.00 0.00 0.00 39 1007.7
20260503012643 64 281 8.0 20.0 0.00 0.00 0.00 40 1007.4
20260503012142 64 278 7.0 20.0 0.00 0.00 0.00 39 1007.4
20260503011642 64 300 6.0 14.0 0.00 0.00 0.00 37 1007.3
20260503011115 65 271 7.0 14.0 0.00 0.00 0.00 38 1007.3
20260503010613 65 248 6.0 15.0 0.00 0.00 0.00 38 1007.2
20260503010112 65 255 4.0 15.0 0.00 0.00 0.00 38 1007.2
20260503005609 65 241 3.0 7.0 0.00 0.00 0.00 39 1007.3
20260503005106 65 253 3.0 7.0 0.00 0.00 0.00 39 1007.3
20260503004607 65 250 3.0 7.0 0.00 0.00 0.00 39 1007.3
20260503004103 65 259 3.0 7.0 0.00 0.00 0.00 40 1007.3
20260503003553 65 242 3.0 9.0 0.00 0.00 0.00 39 1007.3
20260503003306 65 271 4.0 11.0 0.00 0.00 0.00 39 1007.3
20260503002547 65 236 4.0 11.0 0.00 0.00 0.00 38 1007.4
20260503002041 65 263 3.0 11.0 0.00 0.00 0.00 38 1007.3
20260503001538 65 298 5.0 14.0 0.00 0.00 0.00 38 1007.4
20260503001301 65 267 6.0 14.0 0.00 0.00 0.00 38 1007.4
20260503000535 65 194 5.0 13.0 0.00 0.00 0.00 39 1007.7
20260503000032 65 255 4.0 9.0 0.00 0.00 0.00 39 1007.7
20260502235533 65 250 3.0 9.0 0.00 0.00 0.00 39 1007.7
20260502235032 65 255 3.0 8.0 0.00 0.00 0.00 39 1007.7
20260502234757 65 160 3.0 8.0 0.00 0.00 0.00 39 1007.7
20260502234031 65 263 4.0 13.0 0.00 0.00 0.00 39 1007.8
20260502233750 65 183 4.0 13.0 0.00 0.00 0.00 40 1007.9
20260502233022 66 277 4.0 14.0 0.00 0.00 0.00 38 1007.9
20260502232522 66 277 5.0 12.0 0.00 0.00 0.00 38 1007.9
20260502232020 66 211 6.0 18.0 0.00 0.00 0.00 39 1007.9
20260502231515 66 252 5.0 18.0 0.00 0.00 0.00 38 1008.1
20260502231014 66 271 3.0 8.0 0.00 0.00 0.00 37 1008.1
20260502230512 66 175 2.0 6.0 0.00 0.00 0.00 40 1008.0
20260502230007 66 157 1.0 5.0 0.00 0.00 0.00 40 1008.1
20260502225507 66 154 2.0 6.0 0.00 0.00 0.00 37 1008.1
20260502225004 65 154 2.0 7.0 0.00 0.00 0.00 37 1008.1
20260502224502 65 284 2.0 7.0 0.00 0.00 0.00 39 1008.3
20260502223959 65 248 2.0 6.0 0.00 0.00 0.00 36 1008.3
20260502223459 65 265 3.0 7.0 0.00 0.00 0.00 38 1008.4
20260502222949 65 266 4.0 8.0 0.00 0.00 0.00 37 1008.5
20260502222435 65 282 4.0 8.0 0.00 0.00 0.00 37 1008.5
20260502221934 65 245 3.0 7.0 0.00 0.00 0.00 38 1008.6
20260502221431 65 252 4.0 10.0 0.00 0.00 0.00 38 1008.6
20260502220928 65 265 5.0 11.0 0.00 0.00 0.00 37 1008.5
20260502220422 65 249 5.0 13.0 0.00 0.00 0.00 37 1008.6
20260502215922 66 252 7.0 13.0 0.00 0.00 0.00 36 1008.6
20260502215419 66 235 7.0 13.0 0.00 0.00 0.00 36 1008.7
20260502215410 66 258 7.0 13.0 0.00 0.00 0.00 36 1008.7
20260502214637 66 282 5.0 13.0 0.00 0.00 0.00 37 1008.8
20260502213917 66 242 5.0 12.0 0.00 0.00 0.00 37 1008.8
20260502213418 66 275 6.0 12.0 0.00 0.00 0.00 36 1008.9
20260502212914 66 263 7.0 14.0 0.00 0.00 0.00 36 1009.0
20260502212411 66 272 7.0 14.0 0.00 0.00 0.00 37 1009.1
20260502212359 66 195 7.0 18.0 0.00 0.00 0.00 36 1009.2
20260502211411 67 293 8.0 18.0 0.00 0.00 0.00 35 1009.2
20260502210912 67 295 6.0 15.0 0.00 0.00 0.00 37 1009.3
20260502210633 67 261 5.0 15.0 0.00 0.00 0.00 35 1009.4
20260502205911 68 232 5.0 13.0 0.00 0.00 0.00 36 1009.4
20260502205637 68 211 6.0 13.0 0.00 0.00 0.00 35 1009.6